Wind_Speed
19 18 17 17 16 16 15 14 12 11 11 9 8 7 7 7 9 8 8 5 10 6 12 12 12 10 8 8 9 9 4 7 10 12 13 14 15 15 16 18 15 14 13 13 14 15 18 9 5 7 6 5 8 10
16 17 16 16 16 15 15 14 12 12 11 11 9 7 7 6 6 8 8 3 3 10 12 17 17 16 18 20 11 8 13 10 4 7 10 11 13 14 15 14 15 15 15 11 10 4 1 3 2 3 5 6 7 6
15 14 14 16 16 16 16 14 13 14 14 12 11 9 7 6 5 6 10 9 7 9 13 18 13 20 24 24 20 11 9 11 12 10 9 11 14 9 13 13 14 11 10 9 14 12 11 9 5 6 2 5 7 10
12 11 12 13 15 15 15 15 15 14 14 12 11 9 8 8 7 6 11 9 9 10 6 6 4 9 11 14 22 24 20 21 11 9 9 11 13 7 12 15 10 7 6 14 11 14 17 13 8 13 2 6 10 11
12 12 11 12 12 14 14 14 14 13 13 12 11 9 9 9 9 10 14 13 14 9 5 9 25 28 24 17 18 21 23 17 11 9 8 12 13 15 12 11 12 10 14 11 11 13 9 10 9 9 9 13 12 12
14 13 12 11 12 13 13 13 13 13 14 12 10 10 9 8 6 9 3 10 11 14 5 5 5 9 12 15 23 22 18 14 12 12 11 12 24 14 11 15 17 16 17 16 14 13 14 10 10 12 15 12 14 11
13 14 13 11 11 11 11 11 11 10 10 10 9 9 9 9 10 12 5 5 3 3 3 5 5 9 9 13 13 12 19 10 9 12 14 14 16 13 14 16 17 12 8 9 10 10 11 14 11 11 13 16 9 13
12 12 12 10 9 10 9 10 10 10 9 8 8 8 9 10 11 14 16 13 4 5 5 5 5 9 10 7 9 10 11 13 11 6 8 13 15 12 6 19 20 18 14 9 11 13 13 10 10 11 13 11 13 11
12 11 11 9 8 7 8 10 10 10 9 10 8 7 6 7 6 7 11 10 9 6 2 5 9 7 2 8 9 8 8 6 7 14 14 7 7 6 12 18 16 12 7 10 8 7 8 12 9 9 10 14 13 12
13 11 11 10 8 8 9 10 10 10 11 9 7 6 4 6 9 8 7 5 4 5 4 5 10 9 9 3 3 4 5 3 4 13 10 17 16 21 17 15 11 7 6 9 10 11 13 7 8 7 8 9 11 10
11 12 12 12 9 9 11 12 14 14 10 7 6 4 0 9 10 5 5 5 6 4 5 8 15 14 8 7 7 4 4 6 5 9 14 7 8 18 26 4 4 5 10 10 10 9 9 8 9 9 8 8 6 7
11 12 12 13 11 12 12 17 18 17 6 3 3 3 2 4 4 5 5 4 6 5 7 8 7 8 6 2 4 2 1 4 5 9 6 14 2 8 8 8 5 4 7 9 9 8 8 8 9 9 8 9 8 8
11 12 12 12 14 16 18 20 18 10 7 5 4 4 4 4 6 6 10 5 5 5 2 4 4 5 5 6 2 4 6 10 5 3 3 4 11 9 6 7 3 6 5 6 5 3 9 6 8 10 9 10 8 8
9 10 10 9 12 18 20 20 19 12 6 3 1 4 4 5 7 9 9 4 1 2 3 3 1 4 5 5 3 6 4 4 3 2 1 4 7 8 5 4 3 1 2 1 0 1 5 8 6 7 10 1 5 8
9 10 12 13 17 18 19 19 17 11 4 2 4 5 8 8 7 6 9 7 3 3 5 3 4 3 2 2 4 4 3 3 3 1 2 4 7 5 5 5 3 1 1 2 3 6 7 8 8 8 7 12 15 14
13 11 11 16 17 16 17 16 13 6 3 4 6 4 7 9 5 5 7 7 6 6 4 5 2 4 5 2 5 6 1 3 4 5 4 5 4 4 2 3 2 6 1 3 4 8 9 5 9 13 17 19 16 14
15 6 15 17 16 17 18 11 8 5 4 4 4 5 8 7 8 7 6 7 5 4 5 4 6 6 3 6 3 5 4 6 4 5 4 4 3 2 2 3 3 6 7 7 7 10 12 12 13 15 11 15 16 17
3 18 19 19 18 14 8 3 2 3 5 5 6 3 2 5 9 9 3 6 3 4 3 2 5 3 4 2 3 5 6 5 6 7 5 6 7 6 7 8 11 10 10 11 13 12 11 12 13 11 17 16 18 16
17 19 20 20 12 6 4 6 6 3 5 3 3 4 4 4 5 5 5 9 10 6 5 3 3 1 3 5 7 4 3 5 6 6 7 8 11 12 12 13 12 13 14 14 15 14 14 15 16 15 16 15 13 12
15 17 19 16 8 4 3 3 5 3 3 1 2 3 4 4 4 5 5 5 4 2 3 4 4 4 5 4 4 5 6 6 6 6 7 7 9 10 12 10 8 11 13 15 14 13 12 15 14 15 15 14 13 10
13 9 11 8 4 7 3 3 3 3 1 2 3 3 3 2 4 5 3 0 1 2 3 4 4 4 5 5 9 9 7 8 7 7 7 4 5 7 9 8 10 13 7 7 8 11 8 11 13 15 18 14 11 10
5 12 4 7 3 3 4 4 3 2 1 3 3 2 3 3 6 5 6 6 3 2 2 4 5 4 6 8 10 13 14 15 17 16 14 11 6 5 6 8 8 7 9 7 7 11 13 7 8 10 10 10 9 8
9 4 3 4 3 2 4 7 3 3 2 5 4 3 3 3 2 1 3 3 2 0 1 3 4 5 10 12 13 13 19 15 13 10 8 9 6 7 10 10 10 8 7 8 7 9 9 6 6 9 8 9 7 4
4 3 3 3 2 3 3 2 1 2 1 0 2 2 3 3 3 4 4 3 4 5 3 2 4 6 7 9 7 10 15 16 14 10 7 9 8 10 11 11 10 10 9 9 9 8 9 8 5 9 6 3 2 3
1 3 3 5 5 3 4 2 4 3 1 3 6 4 3 1 4 4 3 3 6 7 7 8 8 6 7 7 6 10 9 6 5 6 7 5 6 9 10 11 11 10 8 8 8 8 7 7 7 6 6 7 5 3
4 5 5 4 1 2 2 4 4 8 9 7 4 3 2 4 5 3 3 4 5 5 7 7 7 5 2 5 5 4 6 10 11 8 8 9 10 10 7 6 6 9 8 8 6 6 5 6 5 2 5 5 2 4
2 6 2 4 3 2 4 6 7 5 5 4 3 3 3 4 4 4 2 4 3 7 7 8 9 8 7 8 8 7 6 7 7 5 5 6 7 8 9 9 7 8 6 7 6 6 5 4 3 3 2 1 1 3
4 6 7 8 7 8 7 4 5 4 4 3 3 6 3 2 1 2 2 3 4 3 7 7 3 6 6 4 6 5 4 3 3 2 3 5 6 7 6 7 6 3 6 8 8 6 6 5 5 4 3 3 2 2
3 4 5 5 3 4 5 5 4 3 2 1 4 3 3 3 4 5 4 5 6 4 4 6 4 3 4 5 6 7 7 8 8 2 4 3 5 10 6 4 2 3 5 5 3 5 6 5 7 5 4 3 3 4
5 6 12 14 12 6 5 5 8 8 8 10 9 9 8 9 13 7 4 0 3 8 6 5 5 7 7 6 8 8 10 10 9 10 7 6 6 5 5 4 2 1 2 2 0 4 2 4 7 6 4 6 5 7
2 6 11 12 12 9 7 6 7 6 6 7 8 8 7 6 9 5 5 5 3 2 3 5 8 9 9 8 9 5 9 9 9 9 8 6 6 6 5 4 3 3 3 4 4 5 6 7 5 4 4 5 6 7
5 6 7 10 7 5 5 4 5 5 3 3 3 4 6 5 4 4 6 6 4 3 4 5 8 8 6 7 7 8 7 7 7 7 8 7 6 6 5 4 5 5 5 5 5 5 4 6 7 6 7 7 7 8
3 2 2 4 2 2 2 2 2 2 2 3 3 4 5 6 6 4 2 5 5 5 5 6 5 5 4 4 5 4 4 6 6 6 6 5 5 6 8 8 6 6 6 6 6 6 5 4 5 6 7 7 9 10
Wind_Direction
276 274 272 270 269 269 268 269 271 269 265 279 296 286 283 318 339 336 299 271 281 283 297 291 292 291 271 251 269 32 266 219 261 230 248 252 255 256 254 244 243 232 224 229 234 250 257 107 172 253 43 320 305 317
273 272 266 266 261 260 263 260 261 255 263 266 283 277 267 273 316 330 271 103 283 255 289 306 286 277 271 276 293 286 287 304 317 262 239 254 258 256 261 251 208 241 259 281 293 28 36 37 20 353 335 321 305 279
277 275 266 263 261 256 256 257 256 252 252 260 267 264 261 253 282 288 295 286 287 258 268 249 253 252 241 244 247 260 255 280 277 303 303 292 274 256 256 226 251 255 232 238 267 262 268 247 227 278 237 314 318 308
272 272 273 274 262 254 250 251 254 252 244 250 250 253 249 237 256 273 274 271 259 285 282 268 230 261 250 240 231 235 249 273 287 297 270 266 273 266 265 282 269 262 215 222 246 249 268 273 258 272 315 283 298 295
265 266 273 277 264 252 252 248 252 247 243 243 244 245 241 237 251 269 267 258 237 257 319 319 313 280 252 245 240 237 233 239 247 247 259 257 267 271 274 272 256 259 249 253 253 265 262 275 297 306 281 265 289 282
259 260 272 282 270 258 247 243 243 239 233 232 234 235 229 229 251 272 256 195 221 226 281 283 239 280 259 245 222 231 236 231 244 252 247 264 270 263 279 266 257 251 254 269 276 278 276 283 301 288 275 272 266 286
266 259 261 266 269 261 248 237 230 225 217 224 219 221 218 224 230 246 341 309 339 249 240 272 285 199 215 235 229 215 221 236 221 229 240 250 263 274 246 252 263 266 246 237 265 279 264 262 274 258 252 243 245 261
260 255 252 258 259 244 238 229 213 207 210 210 209 214 218 228 251 270 251 225 225 233 262 272 258 274 215 244 214 216 218 217 215 217 248 226 246 234 245 254 246 260 268 286 284 262 263 262 268 262 261 254 251 241
249 252 243 244 240 234 230 209 200 195 188 181 189 204 224 233 230 247 179 184 202 221 249 267 259 299 14 277 260 204 224 203 240 226 218 234 265 247 240 245 248 250 224 242 228 244 263 257 286 278 251 233 238 225
240 247 238 229 231 235 214 199 186 178 172 174 180 209 226 197 177 143 150 182 213 201 207 246 277 274 280 281 274 283 189 208 234 228 226 226 222 249 249 237 207 205 220 242 244 250 254 233 261 257 287 254 223 231
236 239 239 224 237 222 205 186 175 167 164 192 220 226 297 159 191 204 201 211 183 223 216 238 236 253 240 250 274 296 283 201 233 226 195 203 263 239 225 130 249 205 234 246 252 261 272 267 270 272 263 262 246 234
237 233 233 221 226 208 195 183 183 182 197 205 307 273 285 222 214 224 201 194 211 241 186 230 246 230 223 185 240 209 51 306 253 314 185 232 210 33 128 173 153 207 229 228 231 239 244 261 263 265 253 248 223 219
236 230 230 225 228 210 193 187 189 205 229 247 240 235 194 204 229 232 201 191 207 219 202 204 212 195 198 188 219 265 219 218 228 184 274 32 147 185 123 98 141 217 236 288 287 286 274 274 294 273 250 234 201 202
224 207 222 208 182 176 178 183 186 198 222 217 259 258 239 219 223 222 249 41 326 319 261 199 132 224 187 181 136 268 238 297 345 270 51 101 89 83 79 71 101 103 46 76 57 87 41 29 13 342 302 348 77 102
198 183 174 169 165 170 175 179 181 189 243 216 220 236 229 254 283 326 331 325 296 274 258 232 226 299 196 245 218 266 2 303 263 90 109 83 102 92 76 55 42 18 336 217 122 117 101 87 61 14 94 92 98 94
161 149 166 167 167 164 167 168 180 227 230 221 220 255 272 278 318 318 308 287 273 254 247 227 242 211 202 254 240 216 214 3 61 98 111 110 108 83 5 41 310 269 292 10 94 148 114 98 91 86 83 73 77 83
159 153 168 162 160 162 163 177 197 222 246 235 240 252 251 274 277 285 274 284 316 268 218 210 218 222 188 204 211 148 117 117 121 96 68 47 48 72 123 148 117 100 80 84 95 130 128 118 117 103 89 92 89 88
149 147 155 157 152 154 181 256 268 260 246 253 274 293 265 269 279 279 294 279 263 246 255 293 300 294 355 52 62 98 73 54 60 57 73 77 69 77 88 93 90 89 97 87 97 117 115 106 91 84 96 97 89 80
147 150 153 151 160 159 207 212 220 253 243 256 239 247 247 252 278 253 258 270 264 262 290 282 294 46 60 63 81 83 77 57 79 83 76 70 61 65 73 77 82 83 78 76 83 90 100 101 110 106 102 98 95 100
152 152 157 171 185 252 256 189 202 257 260 281 234 266 284 277 282 267 250 234 217 341 358 15 29 49 92 86 127 77 66 84 104 104 87 67 49 59 66 80 98 109 113 107 103 103 98 102 108 116 126 123 119 124
125 162 175 206 259 219 269 294 217 244 301 325 294 253 273 224 232 213 143 181 154 17 64 39 29 63 84 65 67 81 85 89 82 97 100 74 74 115 83 83 82 85 103 69 68 110 96 111 130 139 150 162 140 106
120 159 205 218 268 251 256 232 277 283 185 269 306 302 251 111 93 69 117 90 59 7 352 351 4 40 83 85 88 89 96 94 100 93 86 84 50 59 57 43 59 57 50 56 82 108 104 58 84 103 106 113 116 99
142 199 244 231 253 257 275 340 287 14 328 334 331 19 15 75 81 195 66 33 88 346 315 293 314 77 96 97 89 80 104 109 102 95 114 88 81 66 67 59 46 43 65 63 51 51 66 92 75 92 115 96 88 128
13 344 322 323 332 271 292 269 270 295 290 345 38 21 40 65 97 63 63 50 28 14 51 103 120 110 108 113 95 110 114 124 137 158 194 88 80 69 57 52 54 62 58 55 62 73 77 86 148 88 85 136 166 51
281 221 217 246 223 227 241 158 199 196 179 140 114 113 80 140 74 67 33 23 18 27 46 73 88 88 95 108 107 69 24 281 91 91 100 147 138 118 102 86 58 38 47 69 63 68 66 66 64 60 57 40 18 29
237 200 207 301 112 175 258 103 101 114 108 84 70 73 75 58 37 38 49 20 45 41 48 53 84 78 47 117 97 91 87 58 40 2 50 36 25 32 55 38 61 60 44 45 60 71 66 67 63 59 120 128 92 316
297 25 293 241 312 14 67 48 62 72 68 59 79 74 61 67 43 3 29 35 65 59 52 61 36 89 62 54 58 55 58 52 43 62 54 44 47 35 30 29 48 30 41 47 52 52 56 55 52 30 27 59 65 349
4 18 0 345 23 25 35 33 61 30 36 9 49 37 50 66 29 51 61 91 127 94 87 103 138 87 70 40 6 35 69 105 124 181 140 127 76 50 28 79 60 36 53 41 18 53 38 32 11 7 2 331 332 322
348 333 341 48 66 57 34 24 37 47 341 81 105 104 99 114 134 133 140 171 143 141 102 89 71 111 117 86 46 25 15 352 352 344 290 310 85 52 27 11 119 179 116 97 80 56 24 17 13 346 350 336 318 287
54 77 83 78 68 57 53 86 81 76 100 104 110 110 112 101 91 106 115 126 53 59 59 61 52 40 32 31 80 54 44 35 24 15 29 42 32 14 10 14 55 35 34 357 218 161 162 270 241 239 273 327 350 350
347 93 77 74 78 86 78 78 72 88 90 92 107 108 111 117 115 85 52 30 46 94 96 79 65 37 28 31 10 58 86 65 57 49 32 47 53 43 33 31 40 32 8 352 334 338 355 327 334 322 336 334 333 317
66 48 80 90 101 106 114 144 134 123 129 146 156 149 161 170 78 91 25 339 304 120 92 322 44 57 47 76 76 76 54 65 53 47 32 35 43 29 37 38 31 15 360 336 325 320 341 315 324 342 329 329 333 326
127 95 36 70 75 71 31 32 101 139 151 102 48 48 49 38 51 66 90 26 342 1 51 54 49 62 65 51 72 89 86 86 93 80 57 41 27 8 351 1 9 353 345 335 337 336 338 346 323 335 318 320 322 320
Height
822 822 822 822 822 822 822 822 823 823 824 824 824 823 822 822 820 819 810 810 808 795 783 783 781 779 772 770 766 759 758 758 758 760 756 747 742 732 733 730 736 745 754 753 749 754 760 724 733 750 748 742 740 740
816 816 816 817 817 818 818 819 820 821 821 822 822 822 821 821 820 819 813 810 811 809 789 789 787 784 782 779 776 768 762 760 747 749 744 741 741 731 732 740 722 748 739 742 740 750 738 733 738 737 736 740 740 740
811 811 811 811 812 813 814 815 816 817 818 819 819 820 820 819 819 819 815 813 812 804 789 779 774 773 776 779 779 776 766 762 757 756 755 746 742 727 733 727 730 724 725 741 744 732 731 730 734 732 735 739 738 736
806 806 806 806 807 807 809 810 812 813 815 816 817 817 818 818 818 817 814 811 810 804 788 764 766 768 770 770 772 773 773 768 769 766 761 753 744 726 732 723 722 717 719 733 736 734 731 728 729 730 733 738 739 735
801 802 802 802 802 803 804 805 807 809 810 812 814 815 815 816 816 815 812 810 809 808 790 776 771 768 767 766 767 767 768 769 767 767 768 761 745 737 729 724 722 714 723 730 731 723 727 728 727 729 734 735 736 733
797 798 798 798 798 799 800 801 803 804 807 809 811 812 813 814 814 813 802 802 805 806 799 776 754 756 757 757 759 763 763 763 763 759 759 757 743 739 744 734 719 715 716 717 722 719 722 726 731 735 734 733 732 730
793 793 794 795 794 795 796 798 799 801 804 807 808 810 811 812 813 809 807 807 805 806 800 775 751 736 749 749 750 752 757 754 757 758 757 754 742 736 734 734 718 710 712 719 721 723 728 728 728 727 726 728 729 729
789 789 790 791 792 792 794 796 798 800 802 804 807 808 809 810 810 806 799 803 805 804 799 777 756 744 737 738 743 742 742 745 748 756 751 749 740 733 750 722 715 711 711 714 717 718 719 721 722 722 722 722 724 722
785 786 787 788 789 790 792 794 796 798 801 803 806 807 808 807 803 795 795 800 803 806 798 773 754 747 740 739 732 733 732 745 742 737 741 745 743 735 719 713 710 708 712 715 712 713 715 715 716 716 716 717 716 716
781 782 783 785 787 788 790 792 795 797 800 802 805 804 799 792 794 795 798 798 800 795 797 785 762 754 746 751 748 740 727 749 743 729 726 721 721 712 704 697 702 704 711 714 717 718 714 712 715 715 712 710 709 711
777 779 780 782 784 786 788 791 793 796 800 801 798 791 791 792 792 791 788 786 779 784 779 762 755 747 741 744 747 736 736 725 732 711 714 723 721 699 698 700 702 705 710 712 712 714 714 714 715 713 712 712 707 711
773 775 776 779 781 784 786 789 792 795 794 794 793 793 793 790 785 780 773 767 766 752 740 743 740 741 736 744 753 746 762 750 732 718 708 698 708 684 690 696 701 706 708 709 710 711 713 714 713 712 712 711 712 714
770 772 774 776 778 780 784 787 790 794 795 794 792 786 783 780 777 764 749 748 750 741 737 741 743 740 739 744 749 744 731 724 692 695 692 683 701 705 702 704 710 711 710 711 710 712 712 711 712 711 710 709 709 713
768 769 771 773 774 778 783 787 791 794 795 789 792 788 775 762 748 734 728 735 738 738 741 741 748 738 731 739 749 746 718 710 712 713 708 708 704 705 709 710 714 715 714 716 718 717 717 718 719 718 715 708 712 719
766 769 771 774 776 779 783 787 791 793 791 792 789 777 755 740 731 736 732 734 733 738 739 739 738 733 735 737 736 724 727 723 718 717 717 716 714 713 714 717 718 718 717 713 715 720 721 722 723 722 720 717 723 727
767 770 772 774 778 781 785 789 792 792 788 785 778 769 756 751 747 746 744 744 741 739 739 736 737 731 737 738 729 718 715 727 718 715 716 716 717 719 721 721 723 721 717 715 716 720 724 725 726 727 728 729 732 735
768 768 771 776 779 783 786 788 789 785 777 768 763 759 760 762 757 751 748 741 741 740 734 730 725 717 721 716 708 710 713 714 712 714 716 720 719 720 722 722 722 723 723 723 723 723 725 728 730 733 735 738 740 741
768 770 774 777 781 785 787 787 784 779 770 761 756 757 759 758 755 745 748 745 743 735 728 722 716 710 706 709 712 716 716 712 712 720 725 725 724 724 725 724 725 725 726 726 727 729 729 731 734 736 740 742 744 747
769 772 776 779 782 783 784 783 780 771 762 762 761 758 757 752 748 747 746 743 740 735 731 721 718 720 721 722 725 723 720 720 725 729 729 730 730 730 729 729 729 729 730 730 730 733 735 736 740 742 746 749 751 753
772 775 778 780 781 779 771 767 768 763 760 757 757 753 751 747 743 741 737 735 734 733 731 731 729 729 728 726 724 723 724 728 731 732 734 736 736 735 734 733 733 732 732 733 735 738 739 740 743 745 749 752 754 756
777 779 781 781 780 777 772 765 762 758 755 755 755 752 746 743 739 736 732 736 734 733 735 737 736 733 730 729 728 730 731 733 734 735 738 743 740 738 734 732 733 737 736 737 737 740 741 739 744 745 748 750 749 751
777 780 781 780 777 771 765 762 758 755 756 753 749 746 739 734 735 734 733 734 744 748 746 744 740 737 735 734 735 736 738 739 739 742 745 745 744 738 737 736 735 736 737 737 738 740 743 744 744 744 748 751 752 754
779 779 777 775 773 769 765 760 755 753 751 750 744 741 739 736 739 738 743 748 750 749 748 747 744 742 741 741 740 740 742 742 744 747 747 748 746 743 743 743 743 741 740 742 742 742 745 748 749 748 752 753 757 758
778 777 775 772 771 767 765 759 757 756 755 750 750 748 739 736 736 737 748 751 751 748 746 744 744 744 746 746 746 744 744 746 748 749 747 743 745 747 747 747 746 746 747 747 747 748 749 751 751 752 756 757 756 756
782 777 777 772 765 763 754 749 750 750 746 736 734 735 738 735 739 751 757 758 754 751 748 747 746 746 747 750 750 752 753 750 746 744 746 744 742 743 746 749 751 751 749 750 751 752 753 753 754 755 757 758 759 760
778 762 766 743 737 741 736 738 737 735 731 733 736 737 736 744 759 760 758 760 758 757 755 753 753 754 755 752 750 750 751 752 752 750 748 748 747 746 747 749 750 755 755 755 755 756 756 757 759 760 761 764 765 763
760 748 744 734 729 726 727 726 726 731 735 739 739 739 743 755 763 767 763 762 760 759 759 759 756 754 753 752 753 753 753 754 755 755 755 755 755 756 755 755 757 759 759 759 759 759 759 760 760 761 761 762 764 764
755 754 754 749 743 739 743 739 741 747 742 742 743 754 764 769 772 765 764 763 763 762 758 760 760 758 759 759 756 754 755 756 757 756 756 756 758 760 760 761 764 764 764 764 764 763 763 763 763 762 763 762 763 763
764 759 754 751 750 751 752 751 750 748 749 747 755 759 762 765 765 765 765 763 761 759 757 757 758 757 757 759 760 759 758 757 755 754 754 751 752 758 761 761 761 762 762 766 768 768 769 768 767 766 764 764 763 762
757 751 751 751 753 760 759 755 752 751 749 751 753 755 756 759 762 763 761 761 758 759 760 760 759 758 758 757 760 763 764 764 762 760 757 759 762 764 763 763 763 762 763 764 763 765 766 767 765 765 764 763 761 763
762 760 759 758 761 759 759 759 759 758 756 756 756 759 761 760 762 763 763 763 760 760 759 760 762 764 763 763 763 761 765 769 770 769 767 766 766 767 767 766 765 765 765 765 765 764 765 764 763 763 762 764 763 763
762 763 763 766 767 763 763 763 762 763 762 760 759 754 754 756 759 762 767 764 762 759 765 764 762 766 768 769 770 771 771 771 771 772 772 771 770 770 768 768 767 768 767 766 765 764 764 765 763 763 763 762 763 762
767 766 766 766 768 767 764 762 760 759 755 754 754 752 754 755 762 764 768 768 767 764 764 767 767 770 772 771 772 773 773 775 775 775 775 775 775 774 772 769 769 768 768 766 765 764 763 764 763 763 763 762 761 760